DW4657 Weather Reports


Display with metric or nautical units.
time (UTC)temp
F
wind
direction
speed
MPH
gust
MPH
rain 1hr
in
rain 24hr
in
rain mn
in
humidity
%
barometer
mb
20260831034026 69 0 0.0 0.0 0.05 0.05 0.05 93 1016.9
20260831033525 69 0 0.0 0.0 0.05 0.05 0.05 92 1017.0
20260831033048 69 0 0.0 0.0 0.05 0.05 0.05 92 1016.9
20260831032519 69 0 0.0 0.0 0.05 0.05 0.05 92 1016.8
20260831032024 69 0 0.0 0.0 0.05 0.05 0.05 92 1016.8
20260831031540 69 0 0.0 0.0 0.05 0.05 0.05 92 1017.0
20260831031024 69 0 0.0 0.0 0.05 0.05 0.05 91 1016.9
20260831030524 69 0 0.0 0.0 0.04 0.04 0.04 91 1017.0
20260831030052 69 0 0.0 0.0 0.03 0.03 0.03 91 1017.1
20260831025525 69 0 0.0 1.0 0.02 0.02 0.02 91 1017.0
20260831025027 69 0 0.0 1.0 0.01 0.01 0.01 90 1017.1
20260831024554 70 0 0.0 1.0 0.01 0.01 0.01 90 1017.1
20260831024022 69 0 0.0 1.0 0.00 0.00 0.00 90 1017.0
20260831023523 69 0 0.0 1.0 0.00 0.00 0.00 90 1017.1
20260831023041 70 0 0.0 0.0 0.00 0.00 0.00 89 1017.0
20260831022525 70 0 0.0 0.0 0.00 0.00 0.00 89 1017.0
20260831022024 69 0 0.0 0.0 0.00 0.00 0.00 89 1017.0
20260831021550 70 0 0.0 0.0 0.00 0.00 0.00 88 1017.0
20260831021025 70 0 0.0 0.0 0.00 0.00 0.00 87 1017.0
20260831020524 70 0 0.0 0.0 0.00 0.00 0.00 87 1017.0
20260831020046 70 0 0.0 0.0 0.00 0.00 0.00 87 1016.9
20260831015525 70 0 0.0 1.0 0.00 0.00 0.00 86 1017.0
20260831015023 71 0 0.0 1.0 0.00 0.00 0.00 85 1016.9
20260831014544 71 0 0.0 3.0 0.00 0.00 0.00 85 1016.8
20260831014024 71 0 0.0 3.0 0.00 0.00 0.00 84 1016.6
20260831013526 71 233 0.0 3.0 0.00 0.00 0.00 83 1016.7
20260831013047 71 197 1.0 4.0 0.00 0.00 0.00 82 1016.8
20260831012524 71 218 0.0 4.0 0.00 0.00 0.00 81 1016.8
20260831012024 71 285 1.0 3.0 0.00 0.00 0.00 81 1016.7
20260831011553 71 230 1.0 4.0 0.00 0.00 0.00 81 1016.8
20260831011023 71 221 1.0 4.0 0.00 0.00 0.00 80 1016.8
20260831010524 71 225 1.0 4.0 0.00 0.00 0.00 80 1016.7
20260831010044 72 210 0.0 5.0 0.00 0.00 0.00 80 1016.6
20260831005525 72 198 2.0 5.0 0.00 0.00 0.00 79 1016.6
20260831005026 72 0 1.0 5.0 0.00 0.00 0.00 78 1016.7
20260831004544 72 244 1.0 5.0 0.00 0.00 0.00 77 1016.5
20260831004024 72 202 0.0 4.0 0.00 0.00 0.00 76 1016.5
20260831003535 73 222 1.0 4.0 0.00 0.00 0.00 75 1016.6
20260831003044 73 216 1.0 4.0 0.00 0.00 0.00 74 1016.5
20260831002524 73 177 2.0 4.0 0.00 0.00 0.00 74 1016.5
20260831002025 73 212 1.0 4.0 0.00 0.00 0.00 74 1016.4
20260831001544 73 227 1.0 4.0 0.00 0.00 0.00 73 1016.5
20260831001023 73 199 1.0 4.0 0.00 0.00 0.00 73 1016.5
20260831000523 73 212 0.0 4.0 0.00 0.00 0.00 72 1016.4
20260831000044 73 179 1.0 4.0 0.00 0.00 0.00 72 1016.2
20260830235529 73 195 1.0 4.0 0.00 0.00 0.00 71 1016.2
20260830235024 73 187 1.0 4.0 0.00 0.00 0.00 71 1016.1
20260830234549 74 124 0.0 6.0 0.00 0.00 0.00 70 1016.0
20260830234024 74 0 1.0 6.0 0.00 0.00 0.00 70 1016.1
20260830233525 74 203 2.0 4.0 0.00 0.00 0.00 70 1016.2
20260830233047 74 202 1.0 4.0 0.00 0.00 0.00 69 1016.2
20260830232526 74 198 0.0 4.0 0.00 0.00 0.00 69 1016.1
20260830232025 74 200 0.0 4.0 0.00 0.00 0.00 69 1016.2
20260830231543 74 193 1.0 4.0 0.00 0.00 0.00 69 1016.2
20260830231026 74 226 1.0 4.0 0.00 0.00 0.00 68 1016.2
20260830230524 74 174 1.0 3.0 0.00 0.00 0.00 68 1016.2
20260830230051 75 204 1.0 3.0 0.00 0.00 0.00 67 1016.1
20260830225525 75 208 1.0 7.0 0.00 0.00 0.00 67 1016.1
20260830225025 75 166 1.0 7.0 0.00 0.00 0.00 66 1016.2
20260830224547 75 228 2.0 7.0 0.00 0.00 0.00 66 1016.2
20260830224025 75 252 2.0 7.0 0.00 0.00 0.00 65 1016.2
20260830223524 75 196 2.0 5.0 0.00 0.00 0.00 65 1016.1
20260830223045 76 222 2.0 6.0 0.00 0.00 0.00 65 1016.2
20260830222518 76 220 2.0 6.0 0.00 0.00 0.00 65 1016.3
20260830222022 76 203 2.0 6.0 0.00 0.00 0.00 64 1016.3
20260830221543 76 244 3.0 9.0 0.00 0.00 0.00 64 1016.3
20260830221024 76 189 2.0 9.0 0.00 0.00 0.00 64 1016.4
20260830220524 76 243 1.0 8.0 0.00 0.00 0.00 64 1016.5
20260830220049 76 198 1.0 8.0 0.00 0.00 0.00 64 1016.4
20260830215524 77 146 2.0 6.0 0.00 0.00 0.00 63 1016.4
20260830215027 77 255 2.0 7.0 0.00 0.00 0.00 63 1016.5
20260830214546 77 215 3.0 9.0 0.00 0.00 0.00 63 1016.5
20260830214029 77 261 4.0 9.0 0.00 0.00 0.00 63 1016.5
20260830213518 77 155 4.0 8.0 0.00 0.00 0.00 63 1016.6
20260830213045 78 222 2.0 6.0 0.00 0.00 0.00 63 1016.7
20260830212524 78 211 1.0 6.0 0.00 0.00 0.00 64 1016.6
20260830212024 78 186 2.0 6.0 0.00 0.00 0.00 63 1016.6
20260830211552 78 148 2.0 6.0 0.00 0.00 0.00 61 1016.6
20260830211024 78 123 1.0 5.0 0.00 0.00 0.00 60 1016.6
20260830210524 78 268 1.0 3.0 0.00 0.00 0.00 60 1016.5
20260830210053 78 238 0.0 5.0 0.00 0.00 0.00 60 1016.6
20260830205524 78 209 1.0 5.0 0.00 0.00 0.00 59 1016.6
20260830205023 78 155 1.0 5.0 0.00 0.00 0.00 59 1016.8
20260830204539 79 203 1.0 4.0 0.00 0.00 0.00 59 1016.6
20260830204023 79 0 0.0 4.0 0.00 0.00 0.00 59 1016.8
20260830203524 79 224 1.0 4.0 0.00 0.00 0.00 58 1016.9
20260830203048 79 139 1.0 4.0 0.00 0.00 0.00 59 1016.9
20260830202525 79 212 1.0 5.0 0.00 0.00 0.00 58 1016.8
20260830202028 79 250 2.0 5.0 0.00 0.00 0.00 57 1016.8
20260830201549 79 252 1.0 6.0 0.00 0.00 0.00 57 1016.8
20260830201024 79 204 3.0 6.0 0.00 0.00 0.00 56 1016.9
20260830200524 80 267 1.0 9.0 0.00 0.00 0.00 57 1016.9
20260830200044 80 231 3.0 9.0 0.00 0.00 0.00 56 1016.9
20260830195524 80 225 0.0 5.0 0.00 0.00 0.00 58 1016.9
20260830195020 80 229 1.0 9.0 0.00 0.00 0.00 56 1017.1
20260830194557 80 260 2.0 9.0 0.00 0.00 0.00 56 1017.1
20260830194024 80 243 1.0 9.0 0.00 0.00 0.00 55 1017.1
20260830193525 81 240 2.0 7.0 0.00 0.00 0.00 54 1017.2
20260830193047 81 186 2.0 7.0 0.00 0.00 0.00 54 1017.2
20260830192525 81 231 2.0 7.0 0.00 0.00 0.00 52 1017.4
20260830192025 82 64 2.0 6.0 0.00 0.00 0.00 51 1017.3
20260830191545 82 0 2.0 6.0 0.00 0.00 0.00 51 1017.5
20260830191024 82 219 1.0 6.0 0.00 0.00 0.00 54 1017.4
20260830190524 82 258 1.0 7.0 0.00 0.00 0.00 54 1017.5
20260830190044 82 216 3.0 8.0 0.00 0.00 0.00 52 1017.5
20260830185523 82 236 1.0 8.0 0.00 0.00 0.00 53 1017.5
20260830185027 82 144 1.0 12.0 0.00 0.00 0.00 52 1017.6
20260830184546 82 20 3.0 12.0 0.00 0.00 0.00 51 1017.6
20260830184025 83 233 2.0 7.0 0.00 0.00 0.00 49 1017.5
20260830183526 83 334 0.0 8.0 0.00 0.00 0.00 49 1017.6
20260830183057 83 228 3.0 8.0 0.00 0.00 0.00 46 1017.6
20260830182527 83 269 2.0 8.0 0.00 0.00 0.00 50 1017.7
20260830182026 82 0 1.0 7.0 0.00 0.00 0.00 50 1017.8
20260830181544 82 203 2.0 9.0 0.00 0.00 0.00 52 1017.9
20260830181020 82 200 2.0 9.0 0.00 0.00 0.00 51 1017.9
20260830180524 83 231 1.0 8.0 0.00 0.00 0.00 50 1018.0
20260830180051 83 134 2.0 7.0 0.00 0.00 0.00 49 1018.0
20260830175524 83 237 1.0 7.0 0.00 0.00 0.00 48 1018.1
20260830175024 83 329 2.0 9.0 0.00 0.00 0.00 49 1018.0
20260830174547 83 28 1.0 9.0 0.00 0.00 0.00 50 1018.1
20260830174024 84 237 2.0 6.0 0.00 0.00 0.00 50 1018.0
20260830173524 83 274 1.0 8.0 0.00 0.00 0.00 50 1018.0
20260830173046 83 282 1.0 8.0 0.00 0.00 0.00 50 1018.2
20260830172524 83 224 4.0 9.0 0.00 0.00 0.00 49 1018.4
20260830172019 83 149 3.0 9.0 0.00 0.00 0.00 50 1018.3
20260830171544 84 216 2.0 6.0 0.00 0.00 0.00 49 1018.3
20260830171021 83 228 2.0 7.0 0.00 0.00 0.00 52 1018.3
20260830170526 83 234 2.0 7.0 0.00 0.00 0.00 53 1018.4
20260830170047 82 226 0.0 10.0 0.00 0.00 0.00 56 1018.5
20260830165523 82 266 3.0 10.0 0.00 0.00 0.00 54 1018.5
20260830165024 83 231 4.0 10.0 0.00 0.00 0.00 53 1018.4
20260830164548 83 225 2.0 12.0 0.00 0.00 0.00 53 1018.5
20260830164026 83 84 5.0 12.0 0.00 0.00 0.00 51 1018.5
20260830163526 83 177 3.0 9.0 0.00 0.00 0.00 53 1018.5
20260830163054 83 257 4.0 9.0 0.00 0.00 0.00 52 1018.6
20260830162523 82 181 1.0 7.0 0.00 0.00 0.00 54 1018.6
20260830162026 82 203 3.0 8.0 0.00 0.00 0.00 55 1018.6
20260830161545 82 200 3.0 8.0 0.00 0.00 0.00 55 1018.5
20260830161022 82 240 3.0 8.0 0.00 0.00 0.00 55 1018.6
20260830160526 82 210 4.0 9.0 0.00 0.00 0.00 55 1018.7
20260830160100 82 245 3.0 9.0 0.00 0.00 0.00 55 1018.8
20260830155525 82 177 3.0 6.0 0.00 0.00 0.00 57 1018.8
20260830155024 82 212 1.0 9.0 0.00 0.00 0.00 56 1018.8
20260830154547 82 157 2.0 9.0 0.00 0.00 0.00 57 1018.8
20260830154027 82 234 3.0 7.0 0.00 0.00 0.00 55 1018.9
20260830153524 81 160 1.0 10.0 0.00 0.00 0.00 58 1018.9
20260830153045 80 226 3.0 10.0 0.00 0.00 0.00 58 1019.2
20260830152528 80 215 3.0 10.0 0.00 0.00 0.00 60 1019.3
20260830152023 80 324 1.0 10.0 0.00 0.00 0.00 61 1019.3
20260830151546 79 214 3.0 9.0 0.00 0.00 0.00 61 1019.3
20260830151024 79 210 1.0 7.0 0.00 0.00 0.00 62 1019.4
20260830150524 78 221 3.0 7.0 0.00 0.00 0.00 62 1019.5
20260830150046 78 58 3.0 7.0 0.00 0.00 0.00 62 1019.6
20260830145524 78 188 2.0 5.0 0.00 0.00 0.00 65 1019.7
20260830145024 78 240 2.0 6.0 0.00 0.00 0.00 64 1019.9
20260830144557 78 205 3.0 6.0 0.00 0.00 0.00 62 1020.0
20260830144024 77 122 1.0 8.0 0.00 0.00 0.00 64 1020.0
20260830143521 77 189 2.0 8.0 0.00 0.00 0.00 64 1020.0
20260830143050 77 210 3.0 7.0 0.00 0.00 0.00 64 1020.0
20260830142527 76 212 3.0 7.0 0.00 0.00 0.00 66 1020.0
20260830142024 76 217 2.0 6.0 0.00 0.00 0.00 66 1019.9
20260830141546 76 200 0.0 6.0 0.00 0.00 0.00 67 1020.0
20260830141024 75 210 2.0 6.0 0.00 0.00 0.00 67 1020.0
20260830140525 75 262 2.0 6.0 0.00 0.00 0.00 67 1020.1
20260830140050 75 186 2.0 8.0 0.00 0.00 0.00 69 1020.1
20260830135524 74 194 2.0 8.0 0.00 0.00 0.00 69 1020.2
20260830135025 74 164 1.0 6.0 0.00 0.00 0.00 69 1020.3
20260830134559 74 199 2.0 6.0 0.00 0.00 0.00 69 1020.3
20260830134024 73 75 1.0 4.0 0.00 0.00 0.00 71 1020.3
20260830133525 73 213 0.0 5.0 0.00 0.00 0.00 72 1020.5
20260830133045 72 190 1.0 5.0 0.00 0.00 0.00 72 1020.4
20260830132523 72 255 1.0 5.0 0.00 0.00 0.00 72 1020.5
20260830132023 72 231 2.0 4.0 0.00 0.00 0.00 73 1020.5
20260830131553 71 231 0.0 4.0 0.00 0.00 0.00 74 1020.5
20260830131025 71 0 1.0 4.0 0.00 0.00 0.00 74 1020.5
20260830130523 70 232 0.0 6.0 0.00 0.00 0.00 76 1020.5
20260830130059 70 233 2.0 8.0 0.00 0.00 0.00 75 1020.6
20260830125525 69 205 1.0 8.0 0.00 0.00 0.00 76 1020.7
20260830125024 69 193 1.0 4.0 0.00 0.00 0.00 76 1020.7
20260830124545 69 269 2.0 5.0 0.00 0.00 0.00 77 1020.7
20260830124024 68 217 1.0 5.0 0.00 0.00 0.00 78 1020.7
20260830123524 67 195 1.0 5.0 0.00 0.00 0.00 78 1020.7
20260830123051 67 204 1.0 4.0 0.00 0.00 0.00 79 1020.8
20260830122522 66 176 0.0 4.0 0.00 0.00 0.00 81 1020.8
20260830122022 65 122 1.0 4.0 0.00 0.00 0.00 82 1020.9
20260830121553 64 193 0.0 4.0 0.00 0.00 0.00 84 1020.9
20260830121025 63 0 0.0 4.0 0.00 0.00 0.00 85 1020.9
20260830120525 62 283 1.0 4.0 0.00 0.00 0.00 86 1020.9
20260830120047 61 0 0.0 3.0 0.00 0.00 0.00 88 1020.8
20260830115526 61 220 0.0 5.0 0.00 0.00 0.00 89 1020.8
20260830115025 60 221 1.0 5.0 0.00 0.00 0.00 89 1020.9
20260830114546 60 0 0.0 2.0 0.00 0.00 0.00 90 1020.9
20260830114024 59 0 0.0 1.0 0.00 0.00 0.00 90 1021.0
20260830113523 59 233 0.0 1.0 0.00 0.00 0.00 90 1021.0
20260830113042 59 0 0.0 2.0 0.00 0.00 0.00 91 1020.9
20260830112524 58 250 0.0 2.0 0.00 0.00 0.00 91 1020.9
20260830112025 58 0 0.0 3.0 0.00 0.00 0.00 92 1021.0
20260830111547 58 0 0.0 3.0 0.00 0.00 0.00 92 1021.0
20260830111024 57 0 0.0 2.0 0.00 0.00 0.00 93 1020.9
20260830110524 57 0 0.0 2.0 0.00 0.00 0.00 93 1020.9
20260830110048 57 221 0.0 2.0 0.00 0.00 0.00 94 1020.9
20260830105527 56 0 0.0 1.0 0.00 0.00 0.00 93 1020.9
20260830105024 56 0 0.0 1.0 0.00 0.00 0.00 93 1020.9
20260830104544 56 0 0.0 0.0 0.00 0.00 0.00 93 1020.9
20260830104021 56 0 0.0 0.0 0.00 0.00 0.00 93 1020.9
20260830103526 56 0 0.0 1.0 0.00 0.00 0.00 93 1021.0
20260830103047 56 0 0.0 1.0 0.00 0.00 0.00 94 1021.1
20260830102523 56 0 0.0 1.0 0.00 0.00 0.00 94 1021.2
20260830102020 56 0 0.0 1.0 0.00 0.00 0.00 93 1021.3
20260830101547 56 0 0.0 1.0 0.00 0.00 0.00 94 1021.3
20260830101025 56 0 0.0 1.0 0.00 0.00 0.00 94 1021.1
20260830100525 55 0 0.0 0.0 0.00 0.00 0.00 93 1021.1
20260830100049 55 0 0.0 0.0 0.00 0.00 0.00 93 1021.1
20260830095525 55 0 0.0 0.0 0.00 0.00 0.00 93 1021.0
20260830095023 56 0 0.0 0.0 0.00 0.00 0.00 93 1021.1
20260830094546 56 0 0.0 0.0 0.00 0.00 0.00 93 1021.0
20260830094024 56 0 0.0 0.0 0.00 0.00 0.00 92 1021.0
20260830093522 56 0 0.0 0.0 0.00 0.00 0.00 92 1021.0
20260830093045 56 0 0.0 0.0 0.00 0.00 0.00 92 1021.0
20260830092524 56 0 0.0 0.0 0.00 0.00 0.00 92 1021.1
20260830092024 56 0 0.0 0.0 0.00 0.00 0.00 92 1021.1
20260830091546 56 0 0.0 0.0 0.00 0.00 0.00 92 1021.1
20260830091025 57 0 0.0 0.0 0.00 0.00 0.00 92 1021.2
20260830090526 57 0 0.0 1.0 0.00 0.00 0.00 92 1021.2
20260830090059 57 0 0.0 1.0 0.00 0.00 0.00 93 1021.3
20260830085522 57 0 0.0 1.0 0.00 0.00 0.00 93 1021.4
20260830085025 57 0 0.0 0.0 0.00 0.00 0.00 93 1021.4
20260830084548 57 0 0.0 1.0 0.00 0.00 0.00 93 1021.4
20260830084025 57 0 0.0 1.0 0.00 0.00 0.00 93 1021.6
20260830083525 57 0 0.0 1.0 0.00 0.00 0.00 93 1021.7
20260830083052 57 240 0.0 1.0 0.00 0.00 0.00 93 1022.0
20260830082529 57 240 0.0 1.0 0.00 0.00 0.00 93 1021.9
20260830082023 57 0 0.0 1.0 0.00 0.00 0.00 93 1021.9
20260830081544 56 0 0.0 1.0 0.00 0.00 0.00 93 1021.8
20260830081018 56 0 0.0 1.0 0.00 0.00 0.00 93 1021.9
20260830080522 56 0 0.0 0.0 0.00 0.00 0.00 93 1021.8
20260830080042 56 0 0.0 0.0 0.00 0.00 0.00 93 1021.7
20260830075525 56 0 0.0 1.0 0.00 0.00 0.00 94 1021.6
20260830075024 56 0 0.0 1.0 0.00 0.00 0.00 93 1021.7
20260830074550 56 0 0.0 0.0 0.00 0.00 0.00 93 1021.7
20260830074024 56 0 0.0 0.0 0.00 0.00 0.00 93 1021.7
20260830073524 56 0 0.0 0.0 0.00 0.00 0.00 92 1021.6
20260830073048 56 0 0.0 0.0 0.00 0.00 0.00 92 1021.7
20260830072521 56 0 0.0 0.0 0.00 0.00 0.00 92 1021.5
20260830072025 56 0 0.0 0.0 0.00 0.00 0.00 92 1021.5
20260830071543 57 0 0.0 0.0 0.00 0.00 0.00 92 1021.4
20260830071024 57 0 0.0 0.0 0.00 0.00 0.00 92 1021.5
20260830070522 57 0 0.0 0.0 0.00 0.00 0.00 92 1021.5
20260830070046 57 0 0.0 0.0 0.00 0.00 0.00 92 1021.5
20260830065524 57 0 0.0 1.0 0.00 0.00 0.00 92 1021.5
20260830065024 57 0 0.0 1.0 0.00 0.00 0.00 93 1021.5
20260830064545 57 0 0.0 1.0 0.00 0.00 0.00 93 1021.5
20260830064025 57 0 0.0 1.0 0.00 0.00 0.00 93 1021.6
20260830063525 57 0 0.0 1.0 0.00 0.00 0.00 93 1021.5
20260830063051 57 0 0.0 0.0 0.00 0.00 0.00 93 1021.3
20260830062518 57 0 0.0 0.0 0.00 0.00 0.00 93 1021.5
20260830062024 57 0 0.0 0.0 0.00 0.00 0.00 92 1021.6
20260830061555 57 0 0.0 0.0 0.00 0.00 0.00 92 1021.6
20260830061022 57 0 0.0 0.0 0.00 0.00 0.00 92 1021.6
20260830060524 57 0 0.0 0.0 0.00 0.00 0.00 92 1021.6
20260830060042 57 0 0.0 0.0 0.00 0.00 0.00 92 1021.5
20260830055524 57 0 0.0 0.0 0.00 0.00 0.00 92 1021.6
20260830055027 57 0 0.0 0.0 0.00 0.00 0.00 92 1021.5
20260830054557 57 0 0.0 0.0 0.00 0.00 0.00 92 1021.6
20260830054026 57 0 0.0 0.0 0.00 0.00 0.00 92 1021.6
20260830053523 57 0 0.0 0.0 0.00 0.00 0.00 92 1021.5
20260830053042 57 0 0.0 0.0 0.00 0.00 0.00 92 1021.5
20260830052522 57 0 0.0 0.0 0.00 0.00 0.00 92 1021.4
20260830052024 58 0 0.0 0.0 0.00 0.00 0.00 92 1021.4
20260830051543 58 0 0.0 0.0 0.00 0.00 0.00 92 1021.5
20260830051024 58 0 0.0 0.0 0.00 0.00 0.00 92 1021.5
20260830050526 58 0 0.0 0.0 0.00 0.00 0.00 92 1021.5
20260830050046 58 0 0.0 0.0 0.00 0.00 0.00 92 1021.5
20260830045524 58 0 0.0 0.0 0.00 0.00 0.00 91 1021.5
20260830045023 58 0 0.0 0.0 0.00 0.00 0.00 91 1021.5
20260830044557 58 0 0.0 0.0 0.00 0.00 0.00 91 1021.3
20260830044024 58 0 0.0 0.0 0.00 0.00 0.00 91 1021.4
20260830043524 59 0 0.0 0.0 0.00 0.00 0.00 92 1021.2
20260830043046 58 0 0.0 0.0 0.00 0.00 0.00 91 1021.4
20260830042525 59 0 0.0 0.0 0.00 0.00 0.00 91 1021.5
20260830042025 59 0 0.0 0.0 0.00 0.00 0.00 91 1021.6
20260830041600 59 0 0.0 0.0 0.00 0.00 0.00 91 1021.4
20260830041023 59 0 0.0 0.0 0.00 0.00 0.00 90 1021.3
20260830040518 59 0 0.0 0.0 0.00 0.00 0.00 90 1021.5
20260830040046 59 0 0.0 0.0 0.00 0.00 0.00 90 1021.4
20260830035524 60 0 0.0 0.0 0.00 0.00 0.00 90 1021.3
20260830035026 60 0 0.0 0.0 0.00 0.00 0.00 90 1021.0
20260830034554 60 0 0.0 1.0 0.00 0.00 0.00 90 1021.2